Monistrol de Calders





Hora UTC 02:55
Temperatura 7.4 ºC
Humitat 88.0 %
Pressió 1020.3 hPa
Pluja 0.0 mm
Velocitat vent 0.0 km/h
Direcció vent SSE

Dades diàries 2020-09-29



Hora UTC (hivern +1h; estiu +2h)
Temperatura (ºC) Humitat (%) Pressió (hPa) Velocitat vent (km/h) Precipitació (mm)
Hora UTC Aire Humitat Pressió Vel. Dir. Vel. Max Dir. Intent. màx 5 min.
00:00 8.7 87.0 1020.6 3.2 SE 3.2 0.0
00:10 8.6 87.0 1020.5 0.0 SE 6.4 0.0
00:15 8.7 87.0 1020.5 0.0 SE 3.2 0.0
00:20 8.7 87.0 1020.4 0.0 SE 3.2 0.0
00:25 8.6 87.0 1020.4 0.0 SE 3.2 0.0
00:30 8.5 87.0 1020.4 1.6 SE 4.8 0.0
00:35 8.5 87.0 1020.4 1.6 SSE 4.8 0.0
00:40 8.6 87.0 1020.4 0.0 SSE 4.8 0.0
00:45 8.4 87.0 1020.4 3.2 SSE 4.8 0.0
00:50 8.5 87.0 1020.3 0.0 SSE 4.8 0.0
00:55 8.4 87.0 1020.5 0.0 SSE 4.8 0.0
01:00 8.4 87.0 1020.4 0.0 SSE 3.2 0.0
01:05 8.4 87.0 1020.3 3.2 SSE 3.2 0.0
01:10 8.3 87.0 1020.4 0.0 SSE 3.2 0.0
01:15 8.3 87.0 1020.4 0.0 SSE 3.2 0.0
01:20 8.2 87.0 1020.4 0.0 SSE 4.8 0.0
01:25 8.2 87.0 1020.4 1.6 SSE 3.2 0.0
01:30 8.1 87.0 1020.5 0.0 SSE 3.2 0.0
01:35 8.0 87.0 1020.6 1.6 SSE 4.8 0.0
01:40 8.0 87.0 1020.6 0.0 SSE 4.8 0.0
01:45 8.1 88.0 1020.6 1.6 SSE 4.8 0.0
01:50 8.0 88.0 1020.5 0.0 SSE 1.6 0.0
01:55 8.1 88.0 1020.6 0.0 SSE 0.0 0.0
02:00 8.1 88.0 1020.6 0.0 SSE 0.0 0.0
02:05 7.9 87.0 1020.7 0.0 SSE 1.6 0.0
02:10 7.8 87.0 1020.6 0.0 SSE 1.6 0.0
02:15 7.8 88.0 1020.6 0.0 SSE 3.2 0.0
02:20 7.8 88.0 1020.5 0.0 SSE 1.6 0.0
02:25 7.7 88.0 1020.5 0.0 SSE 1.6 0.0
02:30 7.7 87.0 1020.4 0.0 SSE 0.0 0.0
02:35 7.6 87.0 1020.4 0.0 SSE 0.0 0.0
02:40 7.4 88.0 1020.3 0.0 SSE 3.2 0.0
02:45 7.4 88.0 1020.3 0.0 SSE 3.2 0.0
02:50 7.4 88.0 1020.3 0.0 SSE 3.2 0.0
02:55 7.4 88.0 1020.3 0.0 SSE 3.2 0.0
Màxima 10.3 88.0 1020.7 3.2 SSE 6.4 0.0
Mínima 7.4 87.0 1020.3
Total 0.0